Wind_Speed
40 41 41 42 43 44 43 43 44 44 44 44 43 43 43 43 44 45 46 46 46 46 46 46 46 45 45 44 43 43 43 44 44 45 45 45 45 45 45 45 44 44 43
41 42 42 42 43 44 44 44 45 44 45 45 44 43 44 45 45 46 46 47 47 46 47 47 47 46 46 45 45 44 44 44 45 46 46 47 47 47 47 47 46 46 45
40 41 43 42 42 43 45 45 45 45 46 46 45 45 45 45 46 46 46 47 47 47 47 47 47 47 47 47 47 46 46 46 46 46 46 47 48 49 48 48 48 47 47
40 41 43 44 43 43 45 46 46 47 47 46 45 45 46 46 46 46 46 47 48 48 47 47 47 47 47 48 48 47 47 47 47 48 48 48 48 49 49 50 50 49 49
40 40 42 43 44 44 45 46 46 47 47 46 46 46 46 47 47 47 47 47 48 48 49 48 48 48 49 49 49 49 49 49 49 48 49 49 49 50 50 50 50 50 51
39 40 41 43 44 44 45 46 46 46 47 47 47 47 46 47 47 48 48 48 48 49 49 49 49 50 51 51 51 51 51 51 50 50 50 50 49 50 50 50 50 51 52
39 39 40 42 44 44 45 46 47 47 46 47 47 46 46 46 47 47 48 49 49 49 50 50 50 49 49 50 50 51 50 50 50 51 51 50 50 51 52 52 52 52 52
39 40 40 42 43 44 45 45 47 47 47 47 47 46 46 46 47 47 48 48 49 50 51 51 51 50 49 49 50 50 50 50 51 51 51 51 51 52 52 53 53 53 53
40 41 41 42 43 44 44 44 45 47 47 47 48 47 46 47 47 47 48 49 48 48 49 50 50 51 51 51 50 50 51 51 52 52 52 52 52 52 52 53 54 54 54
40 41 41 42 43 43 44 44 44 45 46 47 48 48 47 47 47 48 49 49 49 49 49 50 51 52 52 52 52 52 52 52 52 53 53 54 54 53 53 54 55 55 55
41 41 42 42 42 42 43 44 44 44 45 46 47 48 48 47 48 49 49 50 50 50 50 50 51 52 53 53 53 53 53 54 54 55 55 54 55 55 55 55 55 55 55
40 40 40 41 41 41 42 43 43 44 44 45 46 47 48 49 49 49 50 51 51 51 51 51 52 53 54 54 55 55 55 55 55 55 56 56 56 56 56 56 56 55 56
40 40 40 40 40 40 41 42 43 44 45 45 45 46 48 49 50 50 50 51 52 53 53 53 53 54 54 55 56 57 57 57 56 57 57 57 57 56 56 55 55 55 56
40 40 40 40 40 40 41 41 42 44 46 46 47 47 48 49 49 49 50 51 52 53 54 54 55 56 55 56 56 56 57 57 58 57 57 57 57 57 57 57 57 57 57
40 40 40 41 41 41 41 41 42 43 44 46 47 48 49 49 49 50 50 51 52 53 55 55 55 55 55 56 56 57 57 57 58 58 57 57 57 58 58 58 59 59 58
40 40 40 41 41 41 41 42 42 43 44 45 47 49 50 50 49 49 50 51 52 52 53 54 55 56 55 55 56 56 57 57 57 57 57 57 57 57 58 58 59 59 59
40 40 40 40 41 41 42 42 41 42 43 44 45 48 49 49 49 50 49 49 50 50 51 52 53 54 54 55 56 56 56 56 56 57 57 58 57 57 58 58 59 59 60
38 38 39 39 39 40 41 41 41 41 42 42 43 45 47 48 49 49 49 48 48 49 49 50 52 52 53 54 55 56 56 55 55 55 56 58 58 59 58 58 59 59 60
37 37 38 38 38 39 40 41 41 41 41 42 42 44 45 46 47 48 48 48 47 47 48 49 50 51 52 52 53 54 54 54 55 55 56 57 57 58 59 59 59 59 60
37 38 38 38 38 39 39 39 40 41 42 42 43 44 45 46 46 46 46 46 46 47 47 49 49 50 50 50 51 53 53 53 54 54 55 55 56 56 57 58 59 59 59
36 37 38 38 38 39 40 40 41 41 42 43 43 43 44 45 45 45 45 45 45 46 47 48 48 49 49 50 50 50 51 51 52 53 53 54 55 55 56 57 58 58 59
37 37 38 38 38 39 40 41 42 42 43 43 44 44 44 44 44 44 44 44 44 45 46 47 47 48 49 49 50 50 50 51 51 51 52 52 53 54 55 56 57 57 58
37 38 38 39 39 39 40 41 42 43 43 44 44 44 44 44 44 43 44 44 45 45 46 46 46 47 48 49 49 49 50 51 51 51 51 52 52 53 54 54 55 56 57
37 37 38 39 40 40 41 42 43 43 43 43 43 43 43 43 43 43 43 44 44 45 45 46 46 46 47 47 48 48 49 50 50 49 50 50 51 51 52 53 54 55 55
38 39 40 40 41 41 42 42 43 43 42 42 42 42 42 42 42 42 42 43 43 44 45 45 45 45 45 46 47 48 48 49 49 49 49 49 50 50 50 51 52 53 54
39 40 40 41 41 42 42 42 42 42 41 41 41 41 41 41 41 41 41 41 42 43 44 44 44 44 44 45 46 46 47 47 48 48 48 48 49 49 49 49 50 52 52
Wind_Direction
257 257 258 259 259 259 259 258 258 259 258 258 258 259 259 260 260 261 260 259 258 257 256 257 255 254 253 252 252 252 253 253 254 254 253 252 252 251 253 253 253 253 254
259 259 259 259 260 258 258 258 258 259 259 260 260 260 260 260 260 261 260 259 258 256 255 256 255 254 253 252 252 252 254 254 254 254 254 252 253 253 253 253 253 253 254
259 260 261 260 260 259 258 258 258 259 260 261 261 261 261 261 261 261 259 258 257 256 254 254 254 253 253 253 253 253 254 254 254 253 254 253 252 252 252 253 253 254 254
260 262 262 261 261 260 258 258 259 259 260 261 261 262 261 261 261 260 259 257 256 255 255 254 254 254 254 253 253 253 253 253 253 253 254 255 254 253 252 253 253 254 254
263 264 264 264 263 263 262 260 260 261 260 262 262 262 260 260 259 259 258 257 257 256 255 255 255 255 254 254 253 254 254 253 254 254 255 255 255 254 254 253 254 254 255
266 266 265 265 264 265 264 261 260 261 261 261 262 262 261 259 258 258 257 257 257 256 255 255 255 255 254 254 254 254 254 254 254 254 255 255 255 255 255 255 255 256 256
267 268 267 265 265 265 266 264 263 261 260 259 261 261 261 259 259 259 258 257 257 256 255 255 255 254 254 254 254 255 255 255 255 256 256 256 256 256 257 257 256 257 257
269 270 269 268 267 267 266 266 264 262 261 260 260 261 261 260 259 259 258 258 259 258 257 256 255 255 255 255 255 255 256 255 256 257 257 258 258 257 258 259 258 258 258
271 271 270 269 269 268 267 267 266 264 263 262 260 260 261 260 258 258 258 259 258 258 257 256 256 255 255 255 256 256 255 255 256 257 258 258 259 260 260 260 260 260 259
273 272 271 271 270 269 268 267 267 266 265 264 263 262 261 260 259 257 258 258 259 258 258 258 257 255 255 255 256 256 256 257 257 258 258 259 259 260 260 260 260 260 260
274 274 273 272 272 271 269 268 268 267 267 266 265 264 263 262 260 259 259 259 259 258 258 258 257 255 254 255 256 257 258 259 258 258 259 259 260 259 259 260 259 259 260
276 275 274 273 272 272 270 269 268 267 267 267 265 265 264 264 263 261 260 260 259 259 259 259 258 256 256 256 257 257 258 259 259 259 259 259 260 259 260 260 259 259 260
277 275 275 274 272 271 271 269 269 268 268 268 267 266 265 265 265 264 263 262 261 260 259 259 259 257 257 257 257 258 258 258 259 259 260 260 259 259 259 260 260 259 260
278 276 274 274 272 271 271 270 269 269 268 267 267 266 266 266 265 264 263 263 262 261 260 260 259 258 257 258 257 257 258 258 258 258 258 259 259 259 259 259 259 259 259
277 277 276 274 273 272 271 270 271 271 270 269 268 267 267 266 266 265 264 263 263 262 261 260 259 257 257 257 257 257 257 258 258 258 258 259 259 259 259 259 259 259 259
277 277 277 276 275 273 272 272 272 272 272 271 270 269 268 268 267 266 265 264 263 263 261 260 259 258 258 257 258 259 259 259 259 258 258 258 258 259 259 259 259 260 260
278 278 278 277 277 276 275 274 274 274 274 274 273 271 270 268 267 267 266 265 264 263 261 261 259 259 259 258 259 259 259 259 258 257 257 257 258 258 258 259 259 260 260
280 280 279 277 277 278 277 276 275 275 275 274 274 273 272 270 269 269 267 267 266 264 263 262 260 259 260 259 259 259 259 258 258 258 258 257 257 257 258 258 258 259 260
280 280 280 280 280 280 280 278 276 275 275 275 275 276 274 272 270 269 268 267 266 265 265 264 262 262 261 260 260 259 260 259 259 259 259 259 259 258 258 258 259 259 260
280 281 281 282 282 282 282 280 279 277 277 277 277 277 275 273 271 270 269 267 266 266 266 265 264 263 262 262 262 261 261 260 260 260 260 261 260 259 259 258 258 258 258
282 282 282 282 283 283 283 282 281 280 279 279 278 278 277 275 273 271 269 268 268 267 266 265 265 264 263 263 263 263 262 262 262 262 261 261 260 260 259 258 257 257 258
283 283 283 283 284 284 283 283 283 282 282 280 280 279 278 276 274 272 270 269 269 268 267 266 265 265 264 264 264 264 264 264 263 263 262 262 261 261 260 259 258 258 258
283 283 283 283 284 284 284 284 284 284 283 282 280 279 278 277 275 273 272 270 270 270 269 267 267 265 264 264 264 264 264 264 264 263 263 263 263 262 261 261 260 259 259
285 285 285 285 285 285 285 284 284 284 284 283 281 280 278 277 276 274 273 272 272 272 271 269 269 268 267 265 264 263 263 263 263 263 263 263 263 263 262 261 261 260 260
286 286 286 286 286 286 285 285 285 285 285 283 281 280 278 277 276 275 275 274 274 274 272 271 270 269 267 266 265 264 264 263 263 263 264 264 263 263 263 262 262 260 261
286 287 287 288 287 287 286 286 286 285 285 283 282 280 279 278 277 276 276 275 275 274 273 272 272 270 269 267 266 264 264 264 263 263 263 263 263 263 263 263 263 262 261
Height
5681 5682 5683 5684 5685 5686 5688 5689 5690 5691 5693 5694 5695 5696 5698 5699 5700 5701 5703 5704 5705 5707 5709 5710 5712 5714 5716 5719 5721 5723 5725 5727 5730 5733 5735 5738 5741 5744 5746 5749 5752 5755 5757
5671 5671 5672 5673 5674 5675 5676 5677 5678 5680 5681 5683 5683 5684 5686 5687 5688 5689 5690 5692 5693 5695 5697 5698 5700 5703 5705 5707 5709 5711 5714 5716 5719 5721 5724 5727 5730 5732 5735 5738 5741 5743 5746
5660 5661 5661 5662 5663 5663 5664 5665 5667 5668 5669 5670 5671 5672 5673 5674 5675 5676 5678 5679 5680 5682 5684 5686 5689 5691 5693 5696 5698 5700 5703 5705 5707 5709 5712 5715 5718 5721 5724 5726 5729 5732 5734
5649 5650 5650 5651 5651 5652 5652 5653 5654 5655 5656 5657 5658 5659 5660 5662 5663 5664 5665 5666 5668 5669 5671 5674 5676 5679 5681 5684 5686 5688 5691 5693 5695 5697 5700 5703 5705 5709 5712 5715 5717 5720 5722
5639 5639 5639 5639 5640 5640 5640 5641 5641 5642 5644 5644 5645 5646 5647 5648 5649 5651 5652 5653 5655 5657 5659 5661 5663 5666 5668 5671 5674 5676 5678 5681 5683 5685 5687 5690 5692 5695 5698 5703 5705 5707 5710
5628 5628 5628 5627 5628 5628 5627 5628 5629 5629 5630 5631 5632 5633 5634 5635 5636 5638 5639 5641 5642 5644 5645 5648 5650 5653 5655 5658 5661 5663 5665 5668 5670 5672 5675 5677 5679 5682 5685 5688 5692 5694 5697
5616 5616 5616 5616 5615 5615 5615 5615 5616 5617 5617 5618 5619 5620 5621 5622 5624 5625 5627 5628 5629 5631 5632 5634 5637 5639 5642 5644 5647 5649 5652 5654 5657 5659 5661 5664 5666 5669 5672 5674 5677 5680 5683
5605 5604 5604 5604 5603 5603 5603 5603 5603 5604 5604 5605 5606 5607 5608 5609 5611 5613 5614 5615 5616 5618 5619 5621 5623 5626 5628 5630 5633 5636 5638 5640 5643 5645 5648 5650 5653 5655 5658 5660 5662 5665 5668
5593 5593 5592 5592 5591 5591 5590 5590 5590 5591 5591 5592 5593 5594 5595 5596 5598 5599 5601 5602 5603 5604 5606 5607 5610 5612 5614 5617 5619 5622 5624 5627 5629 5631 5634 5636 5638 5641 5643 5645 5647 5650 5653
5582 5581 5580 5579 5579 5578 5577 5577 5578 5578 5578 5579 5580 5581 5582 5583 5584 5586 5587 5588 5589 5590 5592 5594 5596 5598 5600 5603 5605 5608 5610 5612 5614 5616 5619 5621 5624 5626 5628 5630 5632 5635 5637
5570 5569 5568 5567 5567 5566 5565 5565 5565 5565 5565 5566 5567 5567 5568 5569 5571 5572 5573 5574 5575 5576 5578 5579 5581 5583 5586 5588 5590 5593 5595 5597 5599 5601 5603 5606 5608 5610 5612 5614 5617 5619 5622
5559 5557 5556 5556 5555 5554 5553 5553 5553 5553 5553 5553 5554 5554 5555 5555 5556 5557 5559 5559 5561 5562 5563 5564 5566 5568 5570 5572 5574 5577 5579 5581 5583 5585 5587 5590 5592 5594 5596 5598 5601 5603 5606
5547 5546 5545 5544 5543 5542 5541 5541 5540 5540 5540 5540 5540 5540 5541 5542 5542 5543 5543 5544 5545 5546 5547 5549 5550 5552 5554 5556 5558 5560 5563 5565 5567 5569 5571 5573 5575 5578 5580 5582 5584 5587 5589
5536 5535 5534 5532 5531 5530 5529 5529 5528 5527 5526 5526 5526 5526 5527 5527 5527 5528 5528 5528 5529 5530 5531 5532 5534 5535 5537 5539 5541 5543 5546 5548 5550 5552 5554 5557 5559 5561 5563 5566 5568 5570 5573
5525 5524 5522 5521 5519 5518 5517 5516 5515 5514 5513 5513 5512 5512 5512 5512 5512 5512 5512 5513 5513 5513 5514 5515 5516 5518 5520 5522 5524 5526 5528 5531 5533 5535 5538 5540 5542 5544 5546 5549 5551 5553 5556
5513 5512 5510 5509 5507 5506 5505 5503 5502 5501 5500 5499 5498 5497 5497 5497 5497 5497 5497 5497 5497 5497 5498 5499 5500 5502 5504 5506 5507 5509 5511 5513 5516 5518 5520 5523 5525 5527 5529 5532 5534 5537 5539
5502 5500 5499 5497 5496 5494 5492 5491 5490 5488 5487 5486 5484 5483 5483 5482 5482 5482 5482 5481 5481 5482 5482 5483 5484 5486 5488 5490 5491 5493 5494 5496 5498 5500 5503 5505 5507 5509 5512 5514 5517 5519 5522
5491 5489 5487 5486 5484 5482 5481 5479 5477 5475 5474 5473 5471 5470 5468 5468 5467 5467 5467 5467 5466 5467 5467 5468 5469 5471 5473 5474 5475 5476 5478 5479 5481 5483 5485 5487 5490 5492 5494 5497 5500 5502 5505
5480 5478 5476 5475 5473 5471 5469 5467 5465 5463 5462 5460 5458 5456 5455 5454 5453 5453 5453 5453 5453 5453 5453 5454 5455 5456 5457 5458 5459 5460 5461 5463 5465 5467 5468 5470 5472 5475 5477 5480 5483 5485 5487
5469 5467 5466 5464 5462 5460 5457 5455 5453 5451 5449 5447 5446 5444 5442 5440 5440 5439 5439 5439 5439 5439 5439 5440 5440 5441 5442 5443 5443 5444 5446 5448 5450 5451 5452 5454 5455 5457 5459 5461 5464 5467 5470
5458 5456 5454 5452 5450 5448 5446 5444 5442 5439 5437 5435 5433 5431 5429 5427 5426 5426 5425 5425 5425 5426 5426 5426 5426 5427 5427 5428 5428 5429 5430 5431 5433 5434 5436 5438 5439 5440 5442 5444 5447 5450 5452
5447 5445 5443 5441 5439 5437 5435 5432 5430 5427 5425 5423 5421 5419 5417 5415 5414 5413 5412 5411 5411 5412 5411 5412 5412 5412 5413 5413 5413 5414 5414 5415 5417 5419 5420 5422 5422 5424 5425 5427 5429 5432 5434
5436 5434 5432 5430 5427 5425 5422 5420 5417 5415 5412 5410 5408 5406 5404 5402 5401 5400 5399 5398 5398 5398 5397 5397 5398 5398 5398 5398 5398 5399 5399 5400 5401 5403 5404 5406 5407 5408 5409 5411 5412 5414 5417
5425 5423 5420 5418 5415 5413 5410 5407 5404 5402 5399 5397 5395 5393 5391 5390 5388 5387 5386 5385 5384 5384 5383 5383 5383 5383 5383 5383 5383 5384 5384 5385 5386 5387 5388 5390 5391 5392 5393 5394 5396 5397 5400
5413 5411 5409 5406 5403 5401 5398 5395 5392 5389 5387 5384 5382 5380 5379 5377 5376 5375 5373 5372 5371 5369 5369 5369 5368 5368 5369 5368 5368 5368 5369 5370 5371 5372 5373 5374 5375 5376 5378 5379 5380 5382 5383
5402 5399 5397 5394 5391 5388 5385 5382 5379 5376 5374 5372 5370 5368 5366 5365 5363 5362 5361 5359 5357 5356 5355 5354 5354 5354 5354 5353 5353 5354 5354 5354 5355 5356 5358 5359 5360 5362 5363 5364 5365 5366 5368